Flag for Canada Weather past 2 weeks in Medicine Hat, Alberta, Canada

Now
84 °F

Overcast.


Feels Like: 82 °F
Forecast: 58 / 84 °F
Wind: 9 mph from Southwest

Location: Medicine Hat

Current Time: Aug 4, 2015 at 6:32:39 PM

Latest Report: Aug 4, 2015 at 5:00 PM


Visibility: 15 mi

Pressure: 29.78 "Hg (27.64 "Hg at 661m altitude)

Humidity: 31%

Dew point: 50 °F

Location of Medicine HatLocation

Historic Weather in Medicine Hat — Graph

°F

Medicine Hat temperature yesterday

Maximum temperature yesterday: 95 °F (at 3:00 PM)
Minimum temperature yesterday: 59 °F (at 6:00 AM)
Average temperature yesterday: 78 °F

Past Weeks' High & Low Weather Summary

 TemperatureHumidityPressure
High95 °F (Aug 3, 3:00 PM)94% (Jul 23, 4:00 AM)30.22 "Hg (Jul 23, 4:00 AM)
Low46 °F (Jul 24, 6:00 AM)14% (Jul 31, 6:00 PM)29.58 "Hg (Jul 21, 5:00 PM)
Average70 °F51%29.87 "Hg
* Reported Jul 20 5:00 PM — Aug 4 5:00 PM, Medicine Hat, Weather by CustomWeather, © 2015

Note: Actual official high and low records may vary slightly from our data, if they occured in-between our weather recording intervals... More about our weather records

Advertising

Medicine Hat weather history for previous 24 hours

 ConditionsComfort  
Time TempWeatherWind HumidityBarometerVisibility
5:00 PM
Tue, Aug 4
84 °FOvercast.9 mph31%29.78 "Hg15 mi
4:00 PM82 °FMore clouds than sun.6 mph35%29.80 "Hg15 mi
3:00 PM84 °FBroken clouds.6 mph35%29.79 "Hg15 mi
2:00 PM81 °FMore clouds than sun.12 mph37%29.80 "Hg15 mi
1:00 PM79 °FMore clouds than sun.10 mph42%29.80 "Hg15 mi
12:00 PM79 °FMore clouds than sun.15 mph42%29.79 "Hg30 mi
11:00 AM79 °FMore clouds than sun.17 mph39%29.77 "Hg30 mi
10:00 AM77 °FMostly cloudy.15 mph44%29.75 "Hg15 mi
9:00 AM72 °FOvercast.10 mph57%29.75 "Hg30 mi
8:00 AM70 °FScattered showers. Mostly cloudy.16 mph57%29.73 "Hg15 mi
7:51 AM72 °FSprinkles. Mostly cloudy.15 mph53%29.72 "Hg15 mi
7:00 AM73 °FSprinkles. More clouds than sun.20 mph44%29.70 "Hg30 mi
6:00 AM75 °FOvercast.13 mph36%29.66 "Hg9 mi
5:00 AM77 °FPartly cloudy.18 mph34%29.64 "Hg9 mi
4:00 AM77 °FClear.18 mph34%29.64 "Hg9 mi
3:00 AM77 °FPassing clouds.21 mph34%29.64 "Hg9 mi
2:00 AM79 °FPassing clouds.22 mph34%29.66 "Hg9 mi
1:00 AM81 °FPassing clouds.23 mph30%29.67 "Hg9 mi
12:00 AM81 °FPassing clouds.20 mph32%29.67 "Hg9 mi
11:00 PM
Mon, Aug 3
79 °FClear.10 mph34%29.71 "Hg9 mi
10:00 PM79 °FSunny.13 mph37%29.71 "Hg9 mi
9:00 PM82 °FPartly sunny.16 mph32%29.70 "Hg30 mi
8:00 PM88 °FPartly sunny.15 mph27%29.71 "Hg30 mi
7:00 PM90 °FHigh level clouds.17 mph24%29.71 "Hg30 mi
6:00 PM93 °FHigh level clouds.14 mph20%29.72 "Hg30 mi
Weather by CustomWeather, © 2015

See weather overviewHow to use our weather pages